Tracking 28125 objects as of 4-Oct-2023
HD Live streaming from Space Station
objects crossing your sky now

SL-8 DEB

Track SL-8 DEB now!
10-day predictions


NORAD ID: 21401
Int'l Code: 1991-009BQ
Perigee: 1,498.7 km
Apogee: 1,728.0 km
Inclination: 74.1 °
Period: 118.3 minutes
Semi major axis: 7984 km
RCS: 0.0527 m2 (small)
Launch date: February 12, 1991
Source: Commonwealth of Independent States (former USSR) (CIS)
Launch site: PLESETSK MISSILE AND SPACE COMPLEX (PKMTR)

Note: This is SATELLITE DEBRIS
Your satellite tracking list
Your tracking list is empty




NASA's NSSDC Master Catalog

Two Line Element Set (TLE):
1 21401U 91009BQ  23276.15869086 -.00000069  00000-0 -52894-3 0  9998
2 21401  74.1354 170.7116 0143576 251.4814 263.0818 12.16869808446492
Source of the keplerian elements: AFSPC